Regional Weather Roundup
Issued by NWS Bismarck, ND

Home | Current Version | Previous Version | Text Only | Print | Product List | Glossary On
Versions: 1 2 3 4 5 6 7 8 9 10 11 12 13 14 15 16 17 18 19 20 21 22 23 24 25 26 27 28 29 30 31 32 33 34 35 36 37 38 39 40 41 42 43 44 45 46 47 48 49 50
000
ASUS43 KBIS 250210
RWRBIS

NWR BROADCAST TEXT
NATIONAL WEATHER SERVICE BISMARCK ND
900 PM CDT FRI APR 24 2015

NOTE: "FAIR" INDICATES FEW OR NO CLOUDS BELOW 12,000 FEET WITH NO
SIGNIFICANT WEATHER AND/OR OBSTRUCTIONS TO VISIBILITY.


CITY           SKY/WX    TMP DP  RH WIND       PRES   REMARKS
WILLISTON      PTCLDY    61  33  35 E12       29.61S
MINOT          PTCLDY    53  35  50 NE8       29.67R
MINOT AFB      MOCLDY    55  38  53 E12       29.67R
BISMARCK       CLEAR     56  41  57 E8        29.64R
DICKINSON      CLEAR     54  33  45 E8        29.62R
GARRISON         N/A     56  38  50 E9        29.65R
HETTINGER ARPT CLEAR     51  33  50 E9        29.63R
JAMESTOWN      CLOUDY    50  42  74 E14       29.69R
BEACH          FAIR      54  32  43 E9        29.62R
CARRINGTON     FAIR      50  43  76 E14G20    29.72R
CROSBY         FAIR      55  34  44 E12       29.65S
HARVEY           N/A    N/A N/A N/A MISG        N/A
HAZEN          FAIR      55  36  47 E7        29.65R
LINTON         FAIR      55  45  67 NE10      29.62R
MANDAN         FAIR      55  41  58 E10       29.65R
OAKES            N/A     48  45  87 E17G24    29.67R
STANLEY        CLOUDY    55  36  47 E8        29.67R
WATFORD CITY   FAIR      57  32  38 E10       29.61R
$$

CITY           SKY/WX    TMP DP  RH WIND       PRES   REMARKS
GRAND FORKS    CLOUDY    49  38  65 SE9       29.78R
GRAND FORKS AF CLOUDY    49  38  67 S9        29.78R
DEVILS LAKE    CLEAR     48  37  66 E10       29.73R
FARGO          CLOUDY    47  39  74 E12       29.76R
CANDO          FAIR      46  36  66 E14       29.75R
CAVALIER       CLOUDY    46  34  61 E12       29.81S
GRAFTON        CLOUDY    46  34  61 E13       29.81R
GWINNER        MOCLDY    48  43  81 E17       29.70R
LANGDON        CLOUDY    46  36  66 E16       29.79R
ROLLA          FAIR      46  36  66 E10       29.76R
WALHALLA       CLOUDY    46  34  61 SE15      29.82R
$$

CITY           SKY/WX    TMP DP  RH WIND       PRES   REMARKS
ABERDEEN       MOCLDY    51  44  77 NE10      29.61R
MOBRIDGE       CLEAR     60  45  57 E15       29.56R
BUFFALO          N/A     58  34  40 E12       29.56R
RAPID CITY     CLOUDY    53  45  74 SE8       29.60R
GLASGOW        MOCLDY    60  33  36 NW8       29.59R
SIDNEY         CLOUDY    63  37  39 CALM      29.60S
WOLF POINT     MOCLDY    59  45  59 E5        29.58R
GLENDIVE       CLOUDY    61  39  44 NE7       29.61R
MILES CITY     CLOUDY    54  47  77 E7        29.59F
BAKER          CLOUDY    57  35  43 SE7       29.61R
$$

CITY           SKY/WX    TMP DP  RH WIND       PRES   REMARKS
BILLINGS       PTCLDY    64  36  35 SE8       29.53R
GREAT FALLS    LGT RAIN  42  40  92 S12       29.68S
REGINA         CLOUDY    52  32  46 E17G23    29.67R
ESTEVAN        MOCLDY    55  36  47 E10       29.67R
$$




USA.gov is the U.S. government's official web portal to all federal, state and local government web resources and services.